Lake Keowee Weather Center

Moon Phase Calendar



Lake Keowee Water Level
Online Cameras

 


      

Current Conditions in Old Pickens
4/18/2021 7:42:53 AM

47°F
Feels Like 47
Clouds
Humidity
87%
Pressure
29.91"
Wind
1.4 mph (NNW)
Dew Point
43°F
UV Index
0/10 (Low)
Visibility
6 mi

Hourly Forecast

Date & Time Sun, Apr 18
7:00 AM
Sun, Apr 18
8:00 AM
Sun, Apr 18
9:00 AM
Sun, Apr 18
10:00 AM
Sun, Apr 18
11:00 AM
Sun, Apr 18
12:00 PM
Sun, Apr 18
1:00 PM
Sun, Apr 18
2:00 PM
Sun, Apr 18
3:00 PM
Sun, Apr 18
4:00 PM
Sun, Apr 18
5:00 PM
Sun, Apr 18
6:00 PM
Sun, Apr 18
7:00 PM
Sun, Apr 18
8:00 PM
Sun, Apr 18
9:00 PM
Sun, Apr 18
10:00 PM
Sun, Apr 18
11:00 PM
Mon, Apr 19
12:00 AM
Mon, Apr 19
1:00 AM
Mon, Apr 19
2:00 AM
Mon, Apr 19
3:00 AM
Mon, Apr 19
4:00 AM
Mon, Apr 19
5:00 AM
Mon, Apr 19
6:00 AM
Mon, Apr 19
7:00 AM
Mon, Apr 19
8:00 AM
Mon, Apr 19
9:00 AM
Mon, Apr 19
10:00 AM
Mon, Apr 19
11:00 AM
Mon, Apr 19
12:00 PM
Mon, Apr 19
1:00 PM
Mon, Apr 19
2:00 PM
Mon, Apr 19
3:00 PM
Mon, Apr 19
4:00 PM
Mon, Apr 19
5:00 PM
Mon, Apr 19
6:00 PM
Mon, Apr 19
7:00 PM
Mon, Apr 19
8:00 PM
Mon, Apr 19
9:00 PM
Mon, Apr 19
10:00 PM
Mon, Apr 19
11:00 PM
Tue, Apr 20
12:00 AM
Tue, Apr 20
1:00 AM
Tue, Apr 20
2:00 AM
Tue, Apr 20
3:00 AM
Tue, Apr 20
4:00 AM
Tue, Apr 20
5:00 AM
Tue, Apr 20
6:00 AM
Condition
Clouds

Clouds

Clouds

Clouds

Clouds

Clouds

Clouds

Clouds

Clouds

Clouds

Clouds

Clouds

Clouds

Clouds

Clouds

Clouds

Clouds

Clouds

Clouds

Clouds

Clouds

Clouds

Clouds

Clouds

Clouds

Clouds

Clear

Clear

Clear

Clear

Clear

Clear

Clear

Clear

Clear

Clear

Clear

Clear

Clear

Clear

Clouds

Clouds

Clouds

Clouds

Clouds

Clouds

Clouds

Clouds
Temperature 47°F47°F49°F52°F56°F61°F67°F68°F70°F71°F70°F69°F65°F60°F57°F54°F53°F52°F51°F51°F51°F51°F52°F49°F47°F50°F57°F61°F64°F67°F69°F70°F71°F72°F72°F70°F65°F57°F54°F51°F51°F50°F50°F49°F49°F48°F48°F48°F
Feels Like 47°F47°F49°F50°F55°F60°F65°F67°F68°F69°F69°F68°F64°F59°F55°F52°F51°F50°F49°F49°F49°F49°F50°F47°F45°F49°F55°F59°F62°F65°F67°F69°F70°F70°F70°F68°F64°F56°F52°F49°F49°F48°F49°F49°F48°F47°F46°F47°F
Cloudiness 70%75%61%47%34%25%22%29%28%39%41%41%43%49%56%40%37%32%42%42%46%57%70%57%46%38%1%1%1%2%3%5%8%8%7%9%10%9%0%2%34%51%60%67%100%91%75%81%
Visibility 6 mi6 mi6 mi6 mi6 mi6 mi6 mi6 mi6 mi6 mi6 mi6 mi6 mi6 mi6 mi6 mi6 mi6 mi6 mi6 mi6 mi6 mi6 mi6 mi6 mi6 mi6 mi6 mi6 mi6 mi6 mi6 mi6 mi6 mi6 mi6 mi6 mi6 mi6 mi6 mi6 mi6 mi6 mi6 mi6 mi6 mi6 mi6 mi
Precipitation 0%0%0%0%0%0%0%0%0%0%0%0%0%0%0%0%0%0%0%0%0%0%0%1%1%0%0%0%0%0%0%0%0%0%0%0%0%0%0%0%0%0%0%0%0%0%0%0%
Humidity 87%87%82%75%65%53%41%38%36%35%35%40%54%62%65%68%69%70%70%70%69%68%66%74%79%75%58%47%42%38%34%31%30%29%29%34%46%60%64%68%69%69%68%69%70%70%71%70%
Dew Point 43°F43°F43°F44°F45°F44°F42°F42°F42°F41°F41°F44°F48°F46°F44°F43°F43°F42°F41°F41°F40°F40°F40°F40°F40°F42°F42°F40°F40°F40°F39°F39°F38°F38°F38°F40°F44°F43°F41°F41°F40°F40°F39°F39°F39°F38°F38°F38°F
Pressure 29.91"29.91"29.91"29.91"29.91"29.91"29.88"29.85"29.83"29.8"29.8"29.8"29.8"29.83"29.85"29.88"29.88"29.88"29.88"29.88"29.88"29.85"29.85"29.88"29.88"29.91"29.91"29.91"29.91"29.91"29.88"29.88"29.85"29.85"29.85"29.88"29.91"29.94"29.97"30"30"30.03"30.03"30.03"30.06"30.06"30.06"30.06"
Wind Speed 2.7 mph1.4 mph0.8 mph2.5 mph2.2 mph4 mph5.4 mph6.5 mph7.5 mph8.2 mph7.9 mph6.6 mph4.6 mph2.6 mph3.8 mph4.4 mph4.7 mph4.4 mph4.7 mph4.2 mph3.9 mph3.8 mph3.6 mph3.8 mph4.4 mph4.3 mph4.8 mph5.4 mph4.2 mph3.8 mph4.6 mph5 mph4.9 mph4.5 mph4.5 mph5.6 mph5.6 mph5.1 mph5.1 mph3.5 mph3.8 mph3.7 mph3.3 mph2.9 mph3.5 mph4 mph4.1 mph3.2 mph
Wind
Direction
343°
NNW
329°
NNW
273°
W
201°
SSW
196°
SSW
195°
SSW
197°
SSW
194°
SSW
197°
SSW
203°
SSW
211°
SSW
206°
SSW
194°
SSW
226°
SW
274°
W
301°
WNW
326°
NW
331°
NNW
334°
NNW
339°
NNW
315°
NW
307°
NW
301°
WNW
289°
WNW
302°
WNW
325°
NW
341°
NNW
341°
NNW
337°
NNW
314°
NW
287°
WNW
271°
W
267°
W
276°
W
297°
WNW
318°
NW
334°
NNW

N
22°
NNE
358°
N
357°
N
347°
NNW
357°
N
23°
NNE
10°
N

N

N

N

Daily Forecast

Date High Low Precip. Humidity
Today
Apr 18

Clouds
71 °F
47 °F
0%
41%
Monday
Apr 19

Clear
72 °F
47 °F
1%
34%
Tuesday
Apr 20

Clouds
70 °F
48 °F
0%
47%
Wednesday
Apr 21

Clear
64 °F
40 °F
1%
27%
Thursday
Apr 22

Clouds
61 °F
35 °F
0%
26%
Friday
Apr 23

Clouds
62 °F
36 °F
0%
34%
Saturday
Apr 24

Rain
63 °F
48 °F
65%
89%
Sunday
Apr 25

Clear
66 °F
40 °F
2%
22%
Monday
Apr 26

Clear
67 °F
38 °F
0%
31%
Tuesday
Apr 27

Clear
76 °F
47 °F
0%
38%
Wednesday
Apr 28

Rain
71 °F
55 °F
82%
68%
Thursday
Apr 29

Rain
76 °F
52 °F
49%
31%
Friday
Apr 30

Rain
78 °F
56 °F
95%
68%
Saturday
May 1

Rain
79 °F
56 °F
95%
52%
Sunday
May 2

Rain
60 °F
49 °F
100%
66%
Monday
May 3

Rain
69 °F
54 °F
100%
42%

Temperature 8-14 Day Outlook



Precipitation 8-14 Day Outlook




Quick Links
Lake Keowee News
Lake Keowee Photos
Lake Keowee Videos




About Us
Contact Us
Site Map
Search Site
Advertise With Us
   
Keowee.USLakes.info
THE LAKE KEOWEE WEBSITE

Copyright 2021, Lakes Online
Privacy    |    Legal